Hauptseite
METAR-TAF:

METAR-TAF

Flughäfen :

Nancy, Frankreich

Breite: 48-41N, Länge: 006-13E, Höhe: 225 m

Beobachtung

Neuester Wetterbericht von vor 44 Minuten, um 15:30 UTC
Wind 3 kt aus Ost/Südost, variierte zwischen Ost und Süd
Temperatur 6°C
Luftfeuchtigkeit 100%
Luftdruck 1027 hPa
Sichtweite: 4100 m
Geschlossene Wolkendecke in der Höhe von 200 ft
feuchter Dunst

METAR: LFSN 141530Z AUTO 12003KT 080V180 4100 BR OVC002 06/06 Q1027

Zeit: 17:14 (16:14 UTC)


TAF: fehlend

Wetterbeobachtungen und Prognosen von mehr als 4000 Flughäfen (METAR und TAF Bericht).

Die verfügbaren Stationen werden durch gelbe und rote Markierungen auf der Karte dargestellt.

Führen Sie die Maus auf sie, um den Namen der Station zu sehen.

Darauf klicken, um die Beobachtung von Wetterbeobachtungen und Prognosen zu sehen.

Um die Karte zu ändern : klicken Sie auf den grünen Tasten mit einem schwarzen Kreuz Zum Vergrößern, auf den grünen Button mit einem Gedankenstrich zu verkleinern, oder auf die grünen Pfeile für benachbarte Karten.


METAR-TAF: